Location: Chmeln�
(49.6483°N, 14.9871°E)
Time: 08:17:47
(UTC+00:00)

Terra - Pass Details

Date: 18 September 2020
Orbit: 701 x 703 km, 98.2° (Epoch: 28 October)

Event Time Altitude Azimuth Distance (km) Brightness Sun altitude
Exits shadow 21:58:05 17° 310° (NW) 1,774 4.3 -37.5°
Drops below altitude 10° 21:59:29 10° 323° (NW) 2,182 5.0 -37.6°
Sets 22:02:07 0° 336° (NNW) 3,106 6.1 -37.7°
